Location: Babice
(50.3480°N, 22.9363°E)
Time: 11:22:54
(UTC+00:00)

Meteor 1-28 Rocket - Pass Details

Date: 14 July 2020
Orbit: 505 x 522 km, 97.3° (Epoch: 07 August)

Event Time Altitude Azimuth Distance (km) Brightness Sun altitude
Exits shadow 00:56:19 - 155° (SSE) 2,560 6.4 -11.5°
Reaches altitude 10° 00:58:19 10° 151° (SSE) 1,722 5.6 -11.3°
Maximum altitude 01:01:57 56° 73° (ENE) 611 3.8 -11.0°
Drops below altitude 10° 01:05:38 10° 355° (N) 1,745 6.6 -10.6°
Sets 01:07:46 0° 351° (N) 2,639 7.5 -10.4°
